IU2GED-13 Weather Reports


time (UTC)temp
C
wind
direction
speed
KPH
gust
KPH
rain 1hr
cm
rain 24hr
cm
rain mn
cm
humidity
%
barometer
mb
20260506033727 11 13 3.2 9.7 0.00 6.20 0.61 94 1007.0
20260506033232 11 65 4.8 9.7 0.00 6.20 0.61 94 1007.1
20260506032757 11 55 4.8 9.7 0.10 6.20 0.61 94 1007.2
20260506032241 11 11 6.4 9.7 0.10 6.20 0.61 94 1007.3
20260506031727 11 41 6.4 8.0 0.10 6.20 0.61 94 1007.4
20260506031232 11 27 4.8 8.0 0.10 6.20 0.61 94 1007.5
20260506030737 11 40 3.2 8.0 0.10 6.20 0.61 94 1007.6
20260506030240 11 11 3.2 6.4 0.10 6.20 0.61 94 1007.7
20260506025724 11 24 3.2 6.4 0.10 6.20 0.61 94 1007.8
20260506025229 11 58 4.8 6.4 0.10 6.20 0.61 95 1007.9
20260506024734 11 62 3.2 6.4 0.10 6.20 0.61 95 1008.0
20260506024239 11 53 4.8 6.4 0.10 6.20 0.61 95 1008.0
20260506023727 11 37 4.8 6.4 0.10 6.20 0.61 95 1008.0
20260506023230 11 23 3.2 6.4 0.10 6.20 0.61 95 1008.0
20260506022756 11 322 3.2 6.4 0.00 6.10 0.58 95 1008.1
20260506022239 11 42 0.0 4.8 0.00 6.10 0.58 95 1008.2
20260506021724 11 355 0.0 4.8 0.10 6.10 0.58 95 1008.2
20260506021226 11 13 0.0 4.8 0.20 6.10 0.58 94 1008.3
20260506020731 11 13 1.6 4.8 0.41 6.10 0.58 94 1008.2
20260506020236 11 38 1.6 3.2 0.51 6.10 0.58 95 1008.3
20260506015802 11 14 0.0 1.6 0.71 6.10 0.58 95 1008.3
20260506015226 11 14 0.0 3.2 0.79 6.10 0.58 95 1008.3
20260506014731 11 14 1.6 3.2 0.79 6.10 0.58 95 1008.3
20260506014236 11 51 0.0 4.8 0.79 6.10 0.58 95 1008.3
20260506013742 11 355 1.6 6.4 0.89 6.10 0.58 95 1008.2
20260506013226 11 355 4.8 8.0 0.89 6.10 0.58 94 1008.2
20260506012735 11 69 6.4 8.0 0.99 6.10 0.58 94 1008.2
20260506012242 11 5 0.0 4.8 0.99 6.10 0.58 94 1008.3
20260506011746 11 5 3.2 6.4 0.89 5.99 0.56 94 1008.1
20260506011229 11 32 3.2 6.4 0.79 5.89 0.53 94 1008.2
20260506010732 11 48 3.2 6.4 0.71 5.69 0.48 94 1008.4
20260506010237 11 126 0.0 0.0 0.61 5.59 0.46 94 1008.4
20260506005742 11 146 0.0 0.0 0.41 5.41 0.41 95 1008.5
20260506005229 11 146 0.0 0.0 0.30 5.31 0.38 94 1008.6
20260506004733 11 65 0.0 0.0 0.30 5.31 0.38 94 1008.6
20260506004238 11 105 0.0 3.2 0.51 5.31 0.38 94 1008.5
20260506003723 11 105 0.0 3.2 0.51 5.21 0.36 94 1008.5
20260506003228 11 200 0.0 4.8 0.51 5.11 0.33 94 1008.6
20260506002753 11 200 3.2 4.8 0.71 5.11 0.33 94 1008.8
20260506002258 11 74 0.0 4.8 0.79 5.11 0.33 94 1008.8
20260506001740 11 74 1.6 4.8 0.89 5.11 0.33 94 1008.8
20260506001224 11 69 3.2 4.8 0.89 5.11 0.33 94 1008.8
20260506000733 11 16 0.0 0.0 0.89 5.00 0.30 94 1008.7
20260506000240 11 16 0.0 3.2 0.89 5.00 0.30 94 1008.8
20260505235743 11 24 0.0 3.2 0.89 5.00 0.30 94 1008.8
20260505235228 11 168 0.0 0.0 0.99 5.00 0.30 94 1008.9
20260505234733 11 168 0.0 0.0 0.99 5.00 0.30 94 1008.9
20260505234237 11 168 0.0 0.0 0.79 4.80 0.25 94 1008.9
20260505233742 11 168 0.0 0.0 0.79 4.70 0.23 94 1008.9
20260505233225 11 168 0.0 3.2 0.61 4.50 0.18 94 1009.0
20260505232730 11 168 1.6 3.2 0.51 4.39 0.15 94 1009.1
20260505232234 11 168 0.0 0.0 0.41 4.29 0.13 94 1009.0
20260505231740 11 168 0.0 1.6 0.30 4.19 0.10 94 1009.0
20260505231225 11 168 0.0 1.6 0.30 4.19 0.10 94 1009.2
20260505230750 11 168 0.0 3.2 0.30 4.09 0.08 94 1009.1
20260505230254 11 168 0.0 3.2 0.30 4.09 0.08 94 1009.2
20260505225743 11 168 1.6 3.2 0.30 4.09 0.08 94 1009.1
20260505225227 11 168 1.6 4.8 0.20 3.99 0.05 94 1009.0
20260505224732 11 168 3.2 4.8 0.20 3.99 0.05 94 1009.1
20260505224237 11 150 3.2 6.4 0.20 3.99 0.05 94 1009.0
20260505223741 11 186 3.2 12.9 0.20 3.91 0.03 94 1009.1
20260505223226 11 242 8.0 12.9 0.30 3.91 0.03 94 1009.1
20260505222731 11 207 6.4 11.3 0.51 3.91 0.03 94 1009.2
20260505222256 11 221 4.8 12.9 0.61 3.91 0.03 94 1009.1
20260505221738 11 5 6.4 12.9 0.79 3.91 0.03 94 1009.0
20260505221242 11 53 4.8 12.9 0.99 3.91 0.03 94 1009.1
20260505220726 11 37 4.8 8.0 1.09 3.81 0.00 94 1009.1
20260505220231 11 67 4.8 8.0 1.19 3.81 0.00 94 1009.2
20260505215741 11 54 4.8 8.0 1.30 3.81 0.97 94 1009.3
20260505215245 11 51 4.8 6.4 1.30 3.81 0.97 93 1009.3
20260505214731 11 355 0.0 0.0 1.30 3.81 0.97 93 1009.4
20260505214237 11 355 0.0 0.0 1.30 3.81 0.97 93 1009.5
20260505213742 11 80 0.0 0.0 1.19 3.71 0.94 94 1009.7
20260505213228 11 169 0.0 0.0 1.09 3.61 0.91 93 1009.8
20260505212752 11 167 0.0 0.0 0.89 3.40 0.86 93 1009.9
20260505212237 11 236 0.0 0.0 0.79 3.30 0.84 93 1009.9
20260505211742 11 360 0.0 0.0 0.61 3.10 0.79 93 1009.9
20260505211227 11 360 0.0 1.6 0.41 2.90 0.74 93 1010.0
20260505210732 11 338 0.0 1.6 0.20 2.69 0.69 93 1009.9
20260505210258 11 30 0.0 3.2 0.10 2.59 0.66 93 1010.0
20260505205741 11 30 0.0 4.8 0.00 2.49 0.64 93 1010.1
20260505205230 11 15 3.2 4.8 0.00 2.49 0.64 93 1010.1
20260505204733 11 39 3.2 4.8 0.00 2.49 0.64 93 1010.1
20260505204257 11 42 3.2 6.4 0.00 2.49 0.64 93 1010.1
20260505203801 11 34 3.2 8.0 0.00 2.49 0.64 93 1010.1
20260505203226 11 355 4.8 8.0 0.00 2.49 0.64 93 1010.0
20260505202731 11 23 6.4 8.0 0.00 2.49 0.64 93 1010.0
20260505202236 11 28 4.8 8.0 0.00 2.49 0.64 93 1010.0
20260505201741 11 5 3.2 6.4 0.00 2.49 0.64 93 1010.0
20260505201247 11 28 1.6 6.4 0.00 2.49 0.64 93 1010.0
20260505200730 11 34 0.0 0.0 0.10 2.49 0.64 93 1010.2
20260505200233 11 64 0.0 0.0 0.10 2.49 0.64 93 1010.2
20260505195737 11 42 0.0 0.0 0.10 2.49 0.64 93 1010.1
20260505195243 11 348 0.0 0.0 0.10 2.49 0.64 93 1010.1
20260505194726 11 348 0.0 0.0 0.10 2.49 0.64 93 1010.1
20260505194235 11 348 0.0 0.0 0.20 2.49 0.64 93 1010.0
20260505193739 11 348 0.0 0.0 0.20 2.49 0.64 93 1010.0
20260505193223 11 348 0.0 0.0 0.30 2.49 0.64 93 1010.0
20260505192729 11 348 0.0 0.0 0.30 2.49 0.64 92 1010.0
20260505192254 11 348 0.0 0.0 0.30 2.49 0.64 92 1009.9
20260505191738 11 348 0.0 0.0 0.30 2.49 0.64 92 1009.8
20260505191243 11 348 0.0 0.0 0.30 2.49 0.64 92 1009.8
20260505190726 11 348 0.0 0.0 0.20 2.39 0.61 92 1009.8
20260505190226 11 348 0.0 0.0 0.20 2.39 0.61 92 1010.0
20260505185730 11 348 0.0 0.0 0.20 2.39 0.61 92 1009.8
20260505185236 11 348 0.0 0.0 0.20 2.39 0.61 92 1009.8
20260505184741 11 348 0.0 0.0 0.20 2.39 0.61 92 1009.8
20260505184230 11 348 0.0 0.0 0.10 2.31 0.58 92 1009.8
20260505183735 11 348 0.0 0.0 0.10 2.31 0.58 92 1009.7
20260505183240 11 348 0.0 0.0 0.00 2.21 0.56 92 1009.7
20260505182725 11 348 0.0 0.0 0.00 2.21 0.56 92 1009.7
20260505182231 11 348 0.0 0.0 0.00 2.21 0.56 92 1009.7
20260505181735 11 348 0.0 0.0 0.00 2.21 0.56 92 1009.7
20260505181239 11 348 0.0 0.0 0.00 2.21 0.56 92 1009.6
20260505180803 11 348 0.0 0.0 0.00 2.21 0.56 92 1009.6
20260505180227 11 348 0.0 0.0 0.00 2.21 0.56 91 1009.5
20260505175732 11 348 0.0 0.0 0.00 2.21 0.56 91 1009.6
20260505175238 11 348 0.0 0.0 0.00 2.21 0.56 91 1009.4
20260505174803 11 348 0.0 0.0 0.00 2.21 0.56 91 1009.4
20260505174227 11 348 0.0 0.0 0.00 2.21 0.56 91 1009.4
20260505173736 11 348 0.0 0.0 0.00 2.21 0.56 91 1009.4
20260505173239 11 348 0.0 0.0 0.00 2.21 0.56 91 1009.5
20260505172742 11 348 0.0 0.0 0.00 2.21 0.56 91 1009.4
20260505172228 11 348 0.0 0.0 0.00 2.21 0.56 91 1009.4
20260505171733 11 348 0.0 0.0 0.00 2.21 0.56 91 1009.4
20260505171238 11 348 0.0 0.0 0.00 2.21 0.56 90 1009.4
20260505170723 11 348 0.0 0.0 0.00 2.21 0.56 90 1009.4
20260505170228 11 348 0.0 0.0 0.00 2.21 0.56 90 1009.4
20260505165733 11 5 0.0 0.0 0.00 2.21 0.56 90 1009.5
20260505165237 11 355 0.0 0.0 0.00 2.21 0.56 90 1009.4
20260505164742 11 5 0.0 0.0 0.00 2.21 0.56 90 1009.6
20260505164247 11 334 0.0 0.0 0.00 2.21 0.56 90 1009.6
20260505163730 11 17 0.0 0.0 0.00 2.21 0.56 90 1009.6
20260505163239 11 323 0.0 0.0 0.00 2.21 0.56 90 1009.6
20260505162724 11 30 0.0 0.0 0.00 2.21 0.56 90 1009.6
20260505162228 11 138 0.0 0.0 0.00 2.21 0.56 90 1009.7
20260505161754 11 138 0.0 0.0 0.00 2.21 0.56 89 1009.7
20260505161257 12 138 0.0 0.0 0.00 2.21 0.56 89 1009.7
20260505160741 11 138 0.0 0.0 0.10 2.21 0.56 89 1009.8
20260505160226 12 138 0.0 0.0 0.10 2.21 0.56 89 1009.8
20260505153238 11 138 0.0 0.0 0.10 2.21 0.56 89 1009.9
20260505152804 11 138 0.0 0.0 0.10 2.21 0.56 89 1009.9
20260505152241 11 138 0.0 0.0 0.10 2.21 0.56 89 1009.9
20260505151727 11 138 0.0 0.0 0.10 2.21 0.56 89 1009.9
20260505151232 11 138 0.0 1.6 0.10 2.21 0.56 88 1009.9
20260505150735 11 138 0.0 1.6 0.00 2.11 0.53 88 1009.8
20260505150240 11 138 0.0 3.2 0.00 2.11 0.53 88 1009.8
20260505140222 12 13 6.4 9.7 0.00 2.11 0.53 87 1009.8
20260505130233 12 30 0.0 3.2 0.00 2.11 0.53 87 1010.2
20260505124733 12 31 3.2 6.4 0.00 2.11 0.53 87 1010.2
20260505124238 12 59 3.2 6.4 0.00 2.11 0.53 87 1010.3
20260505123742 12 342 3.2 4.8 0.00 2.11 0.53 87 1010.2
20260505123224 12 221 0.0 4.8 0.00 2.11 0.53 86 1010.2
20260505122729 12 221 1.6 4.8 0.00 2.11 0.53 86 1010.3
20260505122235 12 233 0.0 0.0 0.00 2.11 0.53 87 1010.3
20260505121741 12 233 0.0 0.0 0.00 2.11 0.53 86 1010.3
20260505121246 12 233 0.0 3.2 0.00 2.11 0.53 87 1010.4
20260505120730 12 233 0.0 6.4 0.00 2.11 0.53 86 1010.3
20260505120233 12 180 3.2 6.4 0.00 2.11 0.53 86 1010.3
20260505115736 12 205 4.8 6.4 0.00 2.11 0.53 86 1010.3
20260505115242 12 204 1.6 6.4 0.00 2.11 0.53 87 1010.3
20260505114727 12 183 4.8 8.0 0.00 2.11 0.53 86 1010.3
20260505114235 12 149 1.6 3.2 0.10 2.11 0.53 87 1010.3
20260505113740 12 286 0.0 4.8 0.10 2.11 0.53 86 1010.2
20260505113243 12 250 1.6 4.8 0.10 2.11 0.53 86 1010.2
20260505112747 12 304 1.6 8.0 0.10 2.11 0.53 86 1010.3
20260505112229 12 298 1.6 4.8 0.10 2.11 0.53 88 1010.3
20260505111732 12 49 0.0 6.4 0.10 2.11 0.53 88 1010.3
20260505111237 12 301 3.2 11.3 0.10 2.11 0.53 88 1010.3
20260505110742 12 287 4.8 11.3 0.10 2.11 0.53 87 1010.3
20260505110228 12 314 1.6 4.8 0.10 2.11 0.53 87 1010.3
20260505101736 12 61 4.8 19.3 0.30 2.01 0.51 84 1010.1
20260505101241 11 9 6.4 19.3 0.41 2.01 0.51 86 1010.1
20260505100726 11 35 6.4 16.1 0.51 2.01 0.51 89 1010.1
20260505100231 11 63 6.4 14.5 0.61 2.01 0.51 90 1010.2
20260505095756 11 32 4.8 12.9 0.71 2.01 0.51 91 1010.3
20260505095239 11 46 4.8 12.9 0.89 2.01 0.51 92 1010.3
20260505094725 11 9 4.8 12.9 0.79 1.91 0.48 91 1010.4
20260505094229 11 348 4.8 12.9 0.89 1.91 0.48 91 1010.5
20260505093732 11 13 3.2 9.7 0.89 1.91 0.48 91 1010.6
20260505093237 11 314 3.2 12.9 0.99 1.91 0.48 91 1010.6
20260505092726 11 328 4.8 12.9 0.99 1.80 0.46 91 1010.7
20260505092233 11 319 3.2 9.7 0.99 1.70 0.46 91 1010.7
20260505091738 11 355 4.8 9.7 1.09 1.70 0.43 91 1010.6
20260505091223 11 319 4.8 12.9 1.09 1.60 0.41 91 1010.7
20260505090728 11 9 8.0 12.9 1.09 1.50 0.38 91 1010.6
20260505090234 11 46 6.4 12.9 0.99 1.40 0.36 91 1010.6
20260505085739 11 355 4.8 12.9 0.89 1.30 0.33 91 1010.7
20260505085245 11 336 4.8 16.1 0.71 1.09 0.28 91 1010.6
20260505084750 11 36 4.8 16.1 0.79 1.09 0.28 91 1010.6
20260505084233 11 349 6.4 14.5 0.71 0.99 0.25 90 1010.6
20260505083738 11 35 6.4 12.9 0.71 0.99 0.25 90 1010.8
20260505083224 11 43 3.2 6.4 0.71 0.89 0.23 89 1011.0
20260505082734 11 19 4.8 6.4 0.61 0.79 0.20 89 1011.0
20260505082238 11 20 3.2 4.8 0.51 0.71 0.18 89 1011.1
20260505081742 11 194 0.0 1.6 0.41 0.61 0.15 89 1011.0
20260505081226 11 194 0.0 4.8 0.30 0.51 0.13 89 1010.9
20260505080731 11 194 1.6 8.0 0.30 0.41 0.10 89 1010.9
20260505080235 11 209 4.8 11.3 0.30 0.41 0.10 89 1010.8
20260505075742 11 222 1.6 4.8 0.30 0.41 0.10 88 1010.8
20260505075227 11 48 1.6 8.0 0.41 0.41 0.10 88 1010.7
20260505074732 11 24 4.8 8.0 0.30 0.30 0.08 88 1010.6
20260505074237 11 42 4.8 6.4 0.30 0.30 0.08 87 1010.7
20260505073742 11 41 0.0 0.0 0.30 0.30 0.08 87 1010.6
20260505073247 11 46 0.0 0.0 0.20 0.20 0.05 86 1010.7
20260505072751 11 46 0.0 1.6 0.20 0.20 0.05 86 1010.6
20260505072235 11 46 0.0 3.2 0.20 0.20 0.05 86 1010.6
20260505071802 11 328 0.0 6.4 0.20 0.20 0.05 86 1010.5
20260505071228 11 313 3.2 6.4 0.20 0.20 0.05 85 1010.5
20260505070733 11 67 3.2 4.8 0.10 0.10 0.03 85 1010.4
20260505070238 11 36 0.0 0.0 0.10 0.10 0.03 84 1010.5
20260505065724 11 107 0.0 0.0 0.10 0.10 0.03 84 1010.4
20260505065228 11 115 0.0 4.8 0.00 0.00 0.00 83 1010.4
20260505064734 11 18 0.0 6.4 0.00 0.00 0.00 82 1010.4
20260505064240 11 19 4.8 6.4 0.00 0.00 0.00 81 1010.3
20260505063744 11 355 3.2 4.8 0.00 0.00 0.00 81 1010.3
20260505063228 11 20 1.6 3.2 0.00 0.00 0.00 81 1010.4
20260505062753 11 120 0.0 8.0 0.00 0.00 0.00 80 1010.3
20260505062237 11 130 3.2 11.3 0.00 0.00 0.00 80 1010.3
20260505061802 11 166 3.2 9.7 0.00 0.00 0.00 79 1010.3
20260505061225 11 329 4.8 9.7 0.00 0.00 0.00 80 1010.1
20260505060730 11 44 0.0 6.4 0.00 0.00 0.00 79 1010.0
20260505060238 11 34 1.6 6.4 0.00 0.00 0.00 80 1010.1
20260505055723 10 81 3.2 6.4 0.00 0.00 0.00 81 1010.2
20260505055228 11 22 0.0 6.4 0.00 0.00 0.00 80 1010.3
20260505054734 11 333 3.2 4.8 0.00 0.00 0.00 80 1010.3
20260505054259 10 12 0.0 4.8 0.00 0.00 0.00 79 1010.1
20260505053724 11 12 3.2 4.8 0.00 0.00 0.00 78 1010.0
20260505053229 11 32 0.0 0.0 0.00 0.00 0.00 78 1010.1
20260505052735 11 333 0.0 0.0 0.00 0.00 0.00 78 1010.1
20260505052240 11 326 0.0 0.0 0.00 0.00 0.00 77 1010.1
20260505051724 11 231 0.0 0.0 0.00 0.00 0.00 77 1009.9
20260505051229 11 231 0.0 0.0 0.00 0.00 0.00 77 1009.9
20260505050735 11 231 0.0 0.0 0.00 0.00 0.00 77 1009.9
20260505050225 11 231 0.0 1.6 0.00 0.00 0.00 77 1010.0
20260505041728 10 149 0.0 1.6 0.00 0.00 0.00 77 1009.6
20260505041234 10 149 0.0 3.2 0.00 0.00 0.00 76 1009.6
20260505040801 10 199 0.0 6.4 0.00 0.00 0.00 76 1009.6
20260505040225 10 199 3.2 6.4 0.00 0.00 0.00 77 1009.6
20260505035731 11 71 0.0 0.0 0.00 0.00 0.00 76 1009.7
20260505035237 10 360 0.0 1.6 0.00 0.00 0.00 76 1009.7
20260505034727 10 360 0.0 1.6 0.00 0.00 0.00 76 1009.7
20260505034233 10 235 0.0 3.2 0.00 0.00 0.00 74 1009.8